This is the latest recevied weather packets stored in our database for station/object AG1T-20. If no packets are shown the sender has not sent any weather packets the latest 10 day(s).
| Time | Temp. | Humidity | Pressure | Rain* | Wind** | Luminosity | Snow |
|---|---|---|---|---|---|---|---|
| 1777611004 | 10.56° C | 42% | 1020.5 hPa | 0 mm | - | 0 W/m² | - |
| 1777610404 | 10.56° C | 42% | 1020.5 hPa | 0 mm | - | 0 W/m² | - |
| 1777609805 | 11.11° C | 38% | 1020.5 hPa | 0 mm | - | 0 W/m² | - |
| 1777609204 | 11.67° C | 37% | 1020.5 hPa | 0 mm | - | 0 W/m² | - |
| 1777608005 | 11.67° C | 37% | 1020.5 hPa | 0 mm | - | 0 W/m² | - |
| 1777606805 | 11.67° C | 37% | 1019.8 hPa | 0 mm | - | 0 W/m² | - |
| 1777606205 | 12.22° C | 34% | 1019.8 hPa | 0 mm | - | 0 W/m² | - |
| 1777605605 | 12.22° C | 35% | 1019.8 hPa | 0 mm | - | 0 W/m² | - |
| 1777605004 | 12.22° C | 35% | 1019.8 hPa | 0 mm | - | 0 W/m² | - |
| 1777604404 | 12.22° C | 34% | 1019.8 hPa | 0 mm | - | 0 W/m² | - |
| 1777603804 | 12.22° C | 34% | 1019.4 hPa | 0 mm | - | 0 W/m² | - |
| 1777603204 | 12.22° C | 35% | 1019.4 hPa | 0 mm | - | 0 W/m² | - |
| 1777602604 | 12.22° C | 36% | 1019.4 hPa | 0 mm | - | 1 W/m² | - |
| 1777602004 | 12.78° C | 35% | 1019.4 hPa | 0 mm | - | 5 W/m² | - |
| 1777601404 | 13.33° C | 34% | 1019.4 hPa | 0 mm | - | 11 W/m² | - |
| 1777600804 | 13.89° C | 34% | 1019.4 hPa | 0 mm | - | 18 W/m² | - |
| 1777600205 | 13.89° C | 32% | 1019.2 hPa | 0 mm | - | 24 W/m² | - |
| 1777599605 | 14.44° C | 32% | 1019.2 hPa | 0 mm | - | 33 W/m² | - |
| 1777599005 | 15.56° C | 32% | 1019.2 hPa | 0 mm | - | 58 W/m² | - |
| 1777598405 | 15.56° C | 32% | 1019.2 hPa | 0 mm | - | 88 W/m² | - |
| 1777597804 | 16.11° C | 33% | 1019.2 hPa | 0 mm | - | 105 W/m² | - |
| 1777597205 | 16.11° C | 32% | 1019.2 hPa | 0 mm | - | 99 W/m² | - |
| 1777596604 | 16.67° C | 31% | 1019 hPa | 0 mm | - | 108 W/m² | - |
| 1777596004 | 16.11° C | 30% | 1019 hPa | 0 mm | - | 135 W/m² | - |
| 1777595404 | 15° C | 33% | 1019 hPa | 0 mm | - | 151 W/m² | - |
* Rain latest hour (hover to see other rain measurements)
** Current wind speed in m/s (hover to see current wind gust speed)